| time (UTC) | temp F | wind direction | speed MPH | gust MPH | rain 1hr in | rain 24hr in | rain mn in | humidity % | barometer mb |
| 20260901110720 | 70 | 242 | 0.0 | 0.0 | 0.00 | 0.00 | 0.00 | 98 | 1022.7 |
| 20260901110215 | 70 | 242 | 0.0 | 0.0 | 0.00 | 0.00 | 0.00 | 98 | 1022.8 |
| 20260901105712 | 70 | 232 | 0.0 | 0.0 | 0.00 | 0.00 | 0.00 | 98 | 1022.7 |
| 20260901105211 | 70 | 232 | 0.0 | 0.0 | 0.00 | 0.00 | 0.00 | 98 | 1022.9 |
| 20260901104708 | 70 | 232 | 0.0 | 0.0 | 0.00 | 0.00 | 0.00 | 98 | 1022.8 |
| 20260901104203 | 70 | 232 | 0.0 | 0.0 | 0.00 | 0.00 | 0.00 | 98 | 1022.7 |
| 20260901103702 | 70 | 232 | 0.0 | 0.0 | 0.00 | 0.00 | 0.00 | 98 | 1022.9 |
| 20260901103157 | 70 | 232 | 0.0 | 0.0 | 0.00 | 0.00 | 0.00 | 98 | 1022.8 |
| 20260901102652 | 70 | 226 | 0.0 | 0.0 | 0.00 | 0.00 | 0.00 | 98 | 1022.7 |
| 20260901102151 | 70 | 229 | 0.0 | 0.0 | 0.00 | 0.00 | 0.00 | 98 | 1022.7 |
| 20260901101648 | 70 | 228 | 0.0 | 0.0 | 0.00 | 0.00 | 0.00 | 99 | 1022.6 |
| 20260901101146 | 70 | 228 | 0.0 | 0.0 | 0.00 | 0.00 | 0.00 | 99 | 1022.6 |
| 20260901100641 | 70 | 228 | 0.0 | 0.0 | 0.00 | 0.00 | 0.00 | 98 | 1022.5 |
| 20260901100136 | 70 | 228 | 0.0 | 0.0 | 0.00 | 0.00 | 0.00 | 98 | 1022.4 |
| 20260901095634 | 70 | 228 | 0.0 | 0.0 | 0.00 | 0.00 | 0.00 | 98 | 1022.4 |
| 20260901095132 | 70 | 228 | 0.0 | 0.0 | 0.00 | 0.00 | 0.00 | 98 | 1022.5 |
| 20260901094626 | 70 | 228 | 0.0 | 0.0 | 0.00 | 0.00 | 0.00 | 99 | 1022.3 |
| 20260901094121 | 70 | 227 | 0.0 | 0.0 | 0.00 | 0.00 | 0.00 | 98 | 1022.4 |
| 20260901093616 | 70 | 227 | 0.0 | 0.0 | 0.00 | 0.00 | 0.00 | 98 | 1022.2 |
| 20260901093115 | 70 | 227 | 0.0 | 0.0 | 0.00 | 0.00 | 0.00 | 98 | 1022.4 |
| 20260901092611 | 70 | 227 | 0.0 | 0.0 | 0.00 | 0.00 | 0.00 | 98 | 1022.3 |
| 20260901092107 | 70 | 227 | 0.0 | 0.0 | 0.00 | 0.00 | 0.00 | 98 | 1022.4 |
| 20260901091602 | 70 | 227 | 0.0 | 0.0 | 0.00 | 0.00 | 0.00 | 97 | 1022.4 |
| 20260901091057 | 71 | 227 | 0.0 | 0.0 | 0.00 | 0.00 | 0.00 | 97 | 1022.4 |
| 20260901090557 | 71 | 225 | 0.0 | 0.0 | 0.00 | 0.00 | 0.00 | 97 | 1022.2 |
| 20260901090053 | 71 | 227 | 0.0 | 0.0 | 0.00 | 0.00 | 0.00 | 97 | 1022.2 |
| 20260901085548 | 71 | 225 | 0.0 | 0.0 | 0.00 | 0.00 | 0.00 | 97 | 1022.4 |
| 20260901085044 | 71 | 222 | 0.0 | 0.0 | 0.00 | 0.00 | 0.00 | 97 | 1022.4 |
| 20260901084540 | 71 | 221 | 0.0 | 0.0 | 0.00 | 0.00 | 0.00 | 97 | 1022.3 |
| 20260901084036 | 71 | 220 | 0.0 | 0.0 | 0.00 | 0.00 | 0.00 | 97 | 1022.3 |
| 20260901083530 | 71 | 220 | 0.0 | 0.0 | 0.00 | 0.00 | 0.00 | 97 | 1022.1 |
| 20260901083028 | 71 | 215 | 0.0 | 0.0 | 0.00 | 0.00 | 0.00 | 97 | 1022.1 |
| 20260901082524 | 71 | 226 | 0.0 | 0.0 | 0.00 | 0.00 | 0.00 | 97 | 1022.0 |
| 20260901082019 | 71 | 226 | 0.0 | 0.0 | 0.00 | 0.00 | 0.00 | 97 | 1022.1 |
| 20260901081514 | 71 | 226 | 0.0 | 0.0 | 0.00 | 0.00 | 0.00 | 96 | 1022.2 |
| 20260901081009 | 71 | 226 | 0.0 | 0.0 | 0.00 | 0.00 | 0.00 | 96 | 1022.2 |
| 20260901080508 | 71 | 229 | 0.0 | 0.0 | 0.00 | 0.00 | 0.00 | 96 | 1022.2 |
| 20260901080008 | 71 | 229 | 0.0 | 0.0 | 0.00 | 0.00 | 0.00 | 96 | 1022.1 |
| 20260901075504 | 72 | 229 | 0.0 | 0.0 | 0.00 | 0.00 | 0.00 | 96 | 1022.5 |
| 20260901075002 | 72 | 229 | 0.0 | 0.0 | 0.00 | 0.00 | 0.00 | 96 | 1022.3 |
| 20260901074457 | 72 | 229 | 0.0 | 0.0 | 0.00 | 0.00 | 0.00 | 96 | 1022.1 |
| 20260901073952 | 71 | 229 | 0.0 | 0.0 | 0.00 | 0.00 | 0.00 | 96 | 1022.2 |
| 20260901073449 | 71 | 229 | 0.0 | 0.0 | 0.00 | 0.00 | 0.00 | 96 | 1022.2 |
| 20260901070508 | 72 | 229 | 0.0 | 0.0 | 0.00 | 0.00 | 0.00 | 96 | 1022.5 |
| 20260901070003 | 72 | 229 | 0.0 | 0.0 | 0.00 | 0.00 | 0.00 | 96 | 1022.5 |
| 20260901065457 | 72 | 229 | 0.0 | 0.0 | 0.00 | 0.00 | 0.00 | 97 | 1022.5 |
| 20260901064946 | 72 | 230 | 0.0 | 0.0 | 0.00 | 0.00 | 0.00 | 97 | 1022.6 |
| 20260901064443 | 72 | 230 | 0.0 | 0.0 | 0.00 | 0.00 | 0.00 | 96 | 1022.4 |
| 20260901063940 | 72 | 230 | 0.0 | 0.0 | 0.00 | 0.00 | 0.00 | 96 | 1022.6 |
| 20260901063436 | 72 | 230 | 0.0 | 0.0 | 0.00 | 0.00 | 0.00 | 96 | 1022.3 |
| 20260901062932 | 72 | 230 | 0.0 | 0.0 | 0.00 | 0.00 | 0.00 | 96 | 1022.5 |
| 20260901062427 | 72 | 233 | 0.0 | 0.0 | 0.00 | 0.00 | 0.00 | 95 | 1022.5 |
| 20260901061923 | 73 | 233 | 0.0 | 0.0 | 0.00 | 0.00 | 0.00 | 95 | 1022.5 |
| 20260901061419 | 73 | 233 | 0.0 | 0.0 | 0.00 | 0.00 | 0.00 | 95 | 1022.5 |
| 20260901060914 | 73 | 233 | 0.0 | 0.0 | 0.00 | 0.00 | 0.00 | 95 | 1022.5 |
| 20260901060409 | 73 | 233 | 0.0 | 0.0 | 0.00 | 0.00 | 0.00 | 95 | 1022.4 |
| 20260901055908 | 73 | 233 | 0.0 | 0.0 | 0.00 | 0.00 | 0.00 | 94 | 1022.6 |
| 20260901055405 | 73 | 233 | 0.0 | 0.0 | 0.00 | 0.00 | 0.00 | 94 | 1022.8 |
| 20260901054901 | 73 | 233 | 0.0 | 0.0 | 0.00 | 0.00 | 0.00 | 94 | 1022.7 |
| 20260901054358 | 73 | 233 | 0.0 | 0.0 | 0.00 | 0.00 | 0.00 | 94 | 1022.7 |
| 20260901053854 | 73 | 229 | 0.0 | 0.0 | 0.00 | 0.00 | 0.00 | 94 | 1022.8 |
| 20260901053349 | 74 | 259 | 0.0 | 0.0 | 0.00 | 0.00 | 0.00 | 93 | 1022.8 |
| 20260901052845 | 74 | 259 | 0.0 | 0.0 | 0.00 | 0.00 | 0.00 | 93 | 1022.9 |
| 20260901052340 | 74 | 260 | 0.0 | 0.0 | 0.00 | 0.00 | 0.00 | 94 | 1022.6 |
| 20260901051838 | 74 | 260 | 0.0 | 0.0 | 0.00 | 0.00 | 0.00 | 94 | 1022.9 |
| 20260901051334 | 73 | 260 | 0.0 | 0.0 | 0.00 | 0.00 | 0.00 | 94 | 1022.7 |
| 20260901050829 | 73 | 260 | 0.0 | 0.0 | 0.00 | 0.00 | 0.00 | 94 | 1022.7 |
| 20260901050324 | 74 | 260 | 0.0 | 0.0 | 0.00 | 0.00 | 0.00 | 94 | 1022.9 |
| 20260901045819 | 74 | 260 | 0.0 | 0.0 | 0.00 | 0.00 | 0.00 | 93 | 1022.8 |
| 20260901045319 | 74 | 260 | 0.0 | 0.0 | 0.00 | 0.00 | 0.00 | 93 | 1022.7 |
| 20260901044814 | 74 | 260 | 0.0 | 0.0 | 0.00 | 0.00 | 0.00 | 93 | 1022.5 |
| 20260901044310 | 74 | 261 | 0.0 | 0.0 | 0.00 | 0.00 | 0.00 | 93 | 1022.8 |
| 20260901043806 | 74 | 261 | 0.0 | 0.0 | 0.00 | 0.00 | 0.00 | 93 | 1022.8 |
| 20260901043302 | 74 | 261 | 0.0 | 0.0 | 0.00 | 0.00 | 0.00 | 93 | 1022.6 |
| 20260901042801 | 75 | 261 | 0.0 | 0.0 | 0.00 | 0.00 | 0.00 | 92 | 1022.8 |
| 20260901042256 | 75 | 261 | 0.0 | 0.0 | 0.00 | 0.00 | 0.00 | 91 | 1022.6 |
| 20260901041751 | 75 | 261 | 0.0 | 0.0 | 0.00 | 0.00 | 0.00 | 91 | 1022.7 |
| 20260901041246 | 75 | 261 | 0.0 | 0.0 | 0.00 | 0.00 | 0.00 | 91 | 1022.8 |
| 20260901040741 | 75 | 261 | 0.0 | 0.0 | 0.00 | 0.00 | 0.00 | 91 | 1022.6 |
| 20260901040240 | 75 | 261 | 0.0 | 0.0 | 0.00 | 0.00 | 0.00 | 91 | 1022.8 |
| 20260901035738 | 75 | 261 | 0.0 | 0.0 | 0.00 | 0.00 | 0.00 | 90 | 1022.5 |
| 20260901035232 | 75 | 262 | 0.0 | 0.0 | 0.00 | 0.00 | 0.00 | 91 | 1022.7 |
| 20260901034731 | 75 | 77 | 0.0 | 0.0 | 0.00 | 0.00 | 0.00 | 92 | 1022.7 |
| 20260901034227 | 75 | 76 | 0.0 | 0.0 | 0.00 | 0.00 | 0.00 | 92 | 1022.9 |
| 20260901033726 | 75 | 76 | 0.0 | 0.0 | 0.00 | 0.00 | 0.00 | 91 | 1022.8 |
| 20260901033225 | 75 | 76 | 0.0 | 0.0 | 0.00 | 0.00 | 0.00 | 91 | 1022.6 |
| 20260901032724 | 75 | 76 | 0.0 | 0.0 | 0.00 | 0.00 | 0.00 | 91 | 1023.1 |
| 20260901032219 | 75 | 76 | 0.0 | 0.0 | 0.00 | 0.00 | 0.00 | 91 | 1022.8 |
| 20260901031714 | 75 | 215 | 0.0 | 3.0 | 0.00 | 0.00 | 0.00 | 91 | 1022.7 |
| 20260901031210 | 76 | 239 | 0.0 | 0.0 | 0.00 | 0.00 | 0.00 | 88 | 1022.6 |
| 20260901030704 | 76 | 239 | 0.0 | 0.0 | 0.00 | 0.00 | 0.00 | 88 | 1022.7 |
| 20260901030159 | 76 | 239 | 0.0 | 0.0 | 0.00 | 0.00 | 0.00 | 87 | 1022.7 |
| 20260901025654 | 76 | 239 | 0.0 | 0.0 | 0.00 | 0.00 | 0.00 | 88 | 1022.6 |
| 20260901025148 | 77 | 239 | 0.0 | 0.0 | 0.00 | 0.00 | 0.00 | 87 | 1022.7 |
| 20260901024642 | 77 | 239 | 0.0 | 0.0 | 0.00 | 0.00 | 0.00 | 87 | 1022.7 |
| 20260901024141 | 77 | 239 | 0.0 | 0.0 | 0.00 | 0.00 | 0.00 | 87 | 1022.5 |
| 20260901023640 | 77 | 239 | 0.0 | 0.0 | 0.00 | 0.00 | 0.00 | 87 | 1022.5 |
| 20260901023135 | 77 | 239 | 0.0 | 0.0 | 0.00 | 0.00 | 0.00 | 87 | 1022.6 |
| 20260901022630 | 76 | 239 | 0.0 | 0.0 | 0.00 | 0.00 | 0.00 | 87 | 1022.4 |
| 20260901022126 | 77 | 239 | 0.0 | 0.0 | 0.00 | 0.00 | 0.00 | 86 | 1022.3 |
| 20260901021621 | 77 | 239 | 0.0 | 0.0 | 0.00 | 0.00 | 0.00 | 85 | 1022.3 |
| 20260901021116 | 77 | 239 | 0.0 | 0.0 | 0.00 | 0.00 | 0.00 | 85 | 1022.4 |
| 20260901020613 | 77 | 239 | 0.0 | 0.0 | 0.00 | 0.00 | 0.00 | 85 | 1022.3 |
| 20260901020108 | 78 | 239 | 0.0 | 0.0 | 0.00 | 0.00 | 0.00 | 83 | 1022.4 |
| 20260901015603 | 78 | 239 | 0.0 | 0.0 | 0.00 | 0.00 | 0.00 | 82 | 1022.2 |
| 20260901015102 | 78 | 239 | 0.0 | 0.0 | 0.00 | 0.00 | 0.00 | 83 | 1022.2 |
| 20260901014557 | 78 | 239 | 0.0 | 0.0 | 0.00 | 0.00 | 0.00 | 82 | 1022.2 |
| 20260901014053 | 78 | 239 | 0.0 | 0.0 | 0.00 | 0.00 | 0.00 | 80 | 1022.3 |
| 20260901013549 | 78 | 239 | 0.0 | 0.0 | 0.00 | 0.00 | 0.00 | 80 | 1022.1 |
| 20260901013044 | 79 | 239 | 0.0 | 0.0 | 0.00 | 0.00 | 0.00 | 80 | 1022.0 |
| 20260901012544 | 79 | 70 | 0.0 | 0.0 | 0.00 | 0.00 | 0.00 | 79 | 1022.0 |
| 20260901012039 | 79 | 68 | 0.0 | 0.0 | 0.00 | 0.00 | 0.00 | 78 | 1021.9 |
| 20260901011536 | 79 | 68 | 0.0 | 0.0 | 0.00 | 0.00 | 0.00 | 78 | 1022.1 |
| 20260901011033 | 79 | 68 | 0.0 | 0.0 | 0.00 | 0.00 | 0.00 | 77 | 1022.1 |
| 20260901010534 | 78 | 68 | 0.0 | 0.0 | 0.00 | 0.00 | 0.00 | 77 | 1021.8 |
| 20260901010033 | 79 | 68 | 0.0 | 1.0 | 0.00 | 0.00 | 0.00 | 77 | 1021.8 |
| 20260901005528 | 81 | 68 | 0.0 | 0.0 | 0.00 | 0.00 | 0.00 | 74 | 1021.6 |
| 20260901005023 | 81 | 68 | 0.0 | 0.0 | 0.00 | 0.00 | 0.00 | 72 | 1021.7 |
| 20260901004518 | 81 | 58 | 0.0 | 0.0 | 0.00 | 0.00 | 0.00 | 73 | 1021.6 |
| 20260901004013 | 81 | 58 | 0.0 | 0.0 | 0.00 | 0.00 | 0.00 | 73 | 1021.7 |
| 20260901003508 | 81 | 58 | 0.0 | 0.0 | 0.00 | 0.00 | 0.00 | 73 | 1021.6 |
| 20260901003006 | 82 | 58 | 0.0 | 0.0 | 0.00 | 0.00 | 0.00 | 70 | 1021.5 |
| 20260901002505 | 82 | 58 | 0.0 | 1.0 | 0.00 | 0.00 | 0.00 | 69 | 1021.6 |
| 20260901002000 | 82 | 58 | 0.0 | 0.0 | 0.00 | 0.00 | 0.00 | 68 | 1021.5 |
| 20260901001455 | 82 | 58 | 0.0 | 1.0 | 0.00 | 0.00 | 0.00 | 68 | 1021.6 |
| 20260901000950 | 83 | 58 | 0.0 | 0.0 | 0.00 | 0.00 | 0.00 | 67 | 1021.6 |
| 20260901000445 | 84 | 58 | 0.0 | 0.0 | 0.00 | 0.00 | 0.00 | 64 | 1021.4 |
| 20260831235944 | 84 | 58 | 0.0 | 0.0 | 0.00 | 0.00 | 0.00 | 62 | 1021.6 |
| 20260831235440 | 85 | 58 | 0.0 | 0.0 | 0.00 | 0.00 | 0.00 | 61 | 1021.6 |
| 20260831234935 | 85 | 58 | 0.0 | 0.0 | 0.00 | 0.00 | 0.00 | 59 | 1021.7 |
| 20260831234429 | 87 | 58 | 0.0 | 0.0 | 0.00 | 0.00 | 0.00 | 58 | 1021.5 |
| 20260831233925 | 88 | 58 | 0.0 | 0.0 | 0.00 | 0.00 | 0.00 | 56 | 1021.4 |
| 20260831233420 | 89 | 58 | 0.0 | 0.0 | 0.00 | 0.00 | 0.00 | 54 | 1021.4 |
| 20260831232916 | 89 | 58 | 0.0 | 0.0 | 0.00 | 0.00 | 0.00 | 54 | 1021.5 |
| 20260831232412 | 88 | 58 | 0.0 | 0.0 | 0.00 | 0.00 | 0.00 | 53 | 1021.5 |
| 20260831231907 | 88 | 28 | 0.0 | 3.0 | 0.00 | 0.00 | 0.00 | 52 | 1021.5 |
| 20260831231403 | 89 | 71 | 0.0 | 2.0 | 0.00 | 0.00 | 0.00 | 53 | 1021.6 |
| 20260831230858 | 89 | 69 | 0.0 | 1.0 | 0.00 | 0.00 | 0.00 | 51 | 1021.4 |
| 20260831230353 | 89 | 80 | 0.0 | 2.0 | 0.00 | 0.00 | 0.00 | 49 | 1021.5 |
| 20260831225848 | 89 | 82 | 0.0 | 3.0 | 0.00 | 0.00 | 0.00 | 48 | 1021.6 |
| 20260831225343 | 90 | 29 | 2.0 | 2.0 | 0.00 | 0.00 | 0.00 | 47 | 1021.5 |
| 20260831224838 | 90 | 32 | 1.0 | 3.0 | 0.00 | 0.00 | 0.00 | 46 | 1021.5 |
| 20260831224333 | 89 | 184 | 0.0 | 1.0 | 0.00 | 0.00 | 0.00 | 48 | 1021.6 |
| 20260831223827 | 90 | 332 | 0.0 | 2.0 | 0.00 | 0.00 | 0.00 | 50 | 1021.7 |
| 20260831223324 | 91 | 100 | 0.0 | 4.0 | 0.00 | 0.00 | 0.00 | 47 | 1021.6 |
| 20260831222821 | 90 | 225 | 1.0 | 2.0 | 0.00 | 0.00 | 0.00 | 47 | 1021.7 |
| 20260831222316 | 91 | 31 | 2.0 | 2.0 | 0.00 | 0.00 | 0.00 | 49 | 1021.7 |
| 20260831221811 | 90 | 55 | 2.0 | 3.0 | 0.00 | 0.00 | 0.00 | 50 | 1021.7 |
| 20260831221306 | 90 | 48 | 3.0 | 4.0 | 0.00 | 0.00 | 0.00 | 50 | 1021.8 |
| 20260831220806 | 91 | 325 | 2.0 | 3.0 | 0.00 | 0.00 | 0.00 | 49 | 1021.8 |
| 20260831220301 | 92 | 250 | 2.0 | 3.0 | 0.00 | 0.00 | 0.00 | 49 | 1021.9 |
| 20260831215756 | 91 | 180 | 0.0 | 1.0 | 0.00 | 0.00 | 0.00 | 47 | 1021.7 |
| 20260831215252 | 91 | 87 | 1.0 | 3.0 | 0.00 | 0.00 | 0.00 | 48 | 1021.7 |
| 20260831214749 | 91 | 219 | 0.0 | 3.0 | 0.00 | 0.00 | 0.00 | 49 | 1021.9 |
| 20260831214246 | 91 | 265 | 2.0 | 3.0 | 0.00 | 0.00 | 0.00 | 51 | 1021.8 |
| 20260831213741 | 91 | 19 | 3.0 | 6.0 | 0.00 | 0.00 | 0.00 | 48 | 1021.9 |
| 20260831213238 | 91 | 219 | 0.0 | 2.0 | 0.00 | 0.00 | 0.00 | 50 | 1021.8 |
| 20260831212737 | 91 | 27 | 4.0 | 4.0 | 0.00 | 0.00 | 0.00 | 49 | 1021.8 |
| 20260831212234 | 91 | 183 | 3.0 | 4.0 | 0.00 | 0.00 | 0.00 | 49 | 1022.1 |
| 20260831211732 | 91 | 36 | 0.0 | 2.0 | 0.00 | 0.00 | 0.00 | 48 | 1021.9 |
| 20260831211228 | 92 | 333 | 0.0 | 1.0 | 0.00 | 0.00 | 0.00 | 48 | 1021.9 |
| 20260831210723 | 93 | 64 | 2.0 | 2.0 | 0.00 | 0.00 | 0.00 | 48 | 1021.8 |
| 20260831210219 | 92 | 71 | 2.0 | 3.0 | 0.00 | 0.00 | 0.00 | 47 | 1022.0 |
| 20260831205717 | 93 | 227 | 0.0 | 1.0 | 0.00 | 0.00 | 0.00 | 44 | 1022.2 |
| 20260831205214 | 92 | 75 | 0.0 | 2.0 | 0.00 | 0.00 | 0.00 | 47 | 1022.0 |
| 20260831204709 | 92 | 95 | 2.0 | 8.0 | 0.00 | 0.00 | 0.00 | 50 | 1022.1 |
| 20260831204208 | 91 | 218 | 0.0 | 3.0 | 0.00 | 0.00 | 0.00 | 47 | 1022.0 |
| 20260831203702 | 93 | 224 | 0.0 | 2.0 | 0.00 | 0.00 | 0.00 | 48 | 1022.1 |
| 20260831203201 | 92 | 210 | 1.0 | 3.0 | 0.00 | 0.00 | 0.00 | 49 | 1022.2 |
| 20260831202659 | 92 | 130 | 1.0 | 6.0 | 0.00 | 0.00 | 0.00 | 49 | 1022.2 |
| 20260831202155 | 93 | 86 | 0.0 | 2.0 | 0.00 | 0.00 | 0.00 | 50 | 1022.1 |
| 20260831201654 | 93 | 86 | 0.0 | 2.0 | 0.00 | 0.00 | 0.00 | 47 | 1022.3 |
| 20260831201148 | 94 | 219 | 0.0 | 2.0 | 0.00 | 0.00 | 0.00 | 50 | 1022.3 |
| 20260831200645 | 93 | 242 | 2.0 | 2.0 | 0.00 | 0.00 | 0.00 | 47 | 1022.5 |
| 20260831200144 | 94 | 249 | 3.0 | 4.0 | 0.00 | 0.00 | 0.00 | 50 | 1022.4 |
| 20260831195640 | 95 | 244 | 0.0 | 4.0 | 0.00 | 0.00 | 0.00 | 48 | 1022.6 |
| 20260831195135 | 94 | 241 | 0.0 | 1.0 | 0.00 | 0.00 | 0.00 | 52 | 1022.5 |
| 20260831194630 | 93 | 257 | 2.0 | 2.0 | 0.00 | 0.00 | 0.00 | 49 | 1022.5 |
| 20260831194125 | 92 | 244 | 0.0 | 2.0 | 0.00 | 0.00 | 0.00 | 53 | 1022.7 |
| 20260831193620 | 91 | 250 | 0.0 | 3.0 | 0.00 | 0.00 | 0.00 | 54 | 1022.7 |
| 20260831193115 | 92 | 225 | 1.0 | 3.0 | 0.00 | 0.00 | 0.00 | 55 | 1022.8 |
| 20260831192610 | 94 | 219 | 0.0 | 1.0 | 0.00 | 0.00 | 0.00 | 55 | 1022.8 |
| 20260831192105 | 92 | 223 | 0.0 | 3.0 | 0.00 | 0.00 | 0.00 | 55 | 1022.9 |
| 20260831191601 | 90 | 232 | 0.0 | 3.0 | 0.00 | 0.00 | 0.00 | 57 | 1023.0 |
| 20260831191057 | 92 | 62 | 4.0 | 8.0 | 0.00 | 0.00 | 0.00 | 56 | 1022.8 |
| 20260831190552 | 93 | 210 | 0.0 | 2.0 | 0.00 | 0.00 | 0.00 | 58 | 1022.9 |
| 20260831190045 | 90 | 239 | 1.0 | 1.0 | 0.00 | 0.00 | 0.00 | 59 | 1023.0 |
| 20260831185541 | 91 | 45 | 3.0 | 7.0 | 0.00 | 0.00 | 0.00 | 58 | 1023.2 |
| 20260831185037 | 90 | 232 | 1.0 | 2.0 | 0.00 | 0.00 | 0.00 | 55 | 1023.3 |
| 20260831184536 | 90 | 295 | 0.0 | 3.0 | 0.00 | 0.00 | 0.00 | 55 | 1023.2 |
| 20260831184032 | 90 | 33 | 4.0 | 6.0 | 0.00 | 0.00 | 0.00 | 56 | 1023.2 |
| 20260831183531 | 91 | 54 | 0.0 | 2.0 | 0.00 | 0.00 | 0.00 | 57 | 1023.4 |
| 20260831183030 | 90 | 322 | 2.0 | 2.0 | 0.00 | 0.00 | 0.00 | 56 | 1023.5 |
| 20260831182524 | 89 | 260 | 1.0 | 3.0 | 0.00 | 0.00 | 0.00 | 58 | 1023.6 |
| 20260831182020 | 91 | 82 | 0.0 | 2.0 | 0.00 | 0.00 | 0.00 | 57 | 1023.4 |
| 20260831181515 | 89 | 223 | 1.0 | 2.0 | 0.00 | 0.00 | 0.00 | 59 | 1023.4 |
| 20260831181015 | 88 | 66 | 3.0 | 6.0 | 0.00 | 0.00 | 0.00 | 61 | 1023.6 |
| 20260831180515 | 89 | 71 | 2.0 | 7.0 | 0.00 | 0.00 | 0.00 | 60 | 1023.8 |
| 20260831180010 | 89 | 146 | 0.0 | 2.0 | 0.00 | 0.00 | 0.00 | 58 | 1023.6 |
| 20260831175505 | 91 | 43 | 3.0 | 4.0 | 0.00 | 0.00 | 0.00 | 57 | 1023.6 |
| 20260831175001 | 90 | 231 | 0.0 | 2.0 | 0.00 | 0.00 | 0.00 | 57 | 1023.9 |
| 20260831174456 | 87 | 235 | 1.0 | 4.0 | 0.00 | 0.00 | 0.00 | 60 | 1023.8 |
| 20260831173955 | 89 | 33 | 0.0 | 2.0 | 0.00 | 0.00 | 0.00 | 59 | 1023.9 |
| 20260831173454 | 88 | 227 | 1.0 | 4.0 | 0.00 | 0.00 | 0.00 | 62 | 1023.8 |
| 20260831172950 | 90 | 72 | 4.0 | 6.0 | 0.00 | 0.00 | 0.00 | 60 | 1024.1 |
| 20260831172447 | 91 | 211 | 1.0 | 3.0 | 0.00 | 0.00 | 0.00 | 60 | 1023.9 |
| 20260831171942 | 92 | 184 | 1.0 | 2.0 | 0.00 | 0.00 | 0.00 | 60 | 1024.2 |
| 20260831171437 | 90 | 228 | 0.0 | 1.0 | 0.00 | 0.00 | 0.00 | 62 | 1024.2 |
| 20260831170934 | 90 | 94 | 0.0 | 2.0 | 0.00 | 0.00 | 0.00 | 62 | 1024.2 |
| 20260831170430 | 90 | 26 | 0.0 | 1.0 | 0.00 | 0.00 | 0.00 | 63 | 1024.4 |
| 20260831165927 | 89 | 252 | 0.0 | 0.0 | 0.00 | 0.00 | 0.00 | 60 | 1024.5 |
| 20260831165422 | 89 | 244 | 1.0 | 2.0 | 0.00 | 0.00 | 0.00 | 61 | 1024.3 |
| 20260831164919 | 89 | 34 | 0.0 | 2.0 | 0.00 | 0.00 | 0.00 | 64 | 1024.3 |
| 20260831164415 | 89 | 237 | 2.0 | 4.0 | 0.00 | 0.00 | 0.00 | 65 | 1024.6 |
| 20260831163910 | 88 | 178 | 0.0 | 0.0 | 0.00 | 0.00 | 0.00 | 66 | 1024.6 |
| 20260831163405 | 86 | 251 | 2.0 | 2.0 | 0.00 | 0.00 | 0.00 | 68 | 1024.8 |
| 20260831162904 | 84 | 333 | 0.0 | 3.0 | 0.00 | 0.00 | 0.00 | 71 | 1024.6 |
| 20260831162359 | 85 | 18 | 3.0 | 3.0 | 0.00 | 0.00 | 0.00 | 71 | 1024.6 |
| 20260831161857 | 86 | 257 | 1.0 | 3.0 | 0.00 | 0.00 | 0.00 | 70 | 1024.6 |
| 20260831161354 | 86 | 123 | 0.0 | 2.0 | 0.00 | 0.00 | 0.00 | 70 | 1024.6 |
| 20260831160849 | 87 | 249 | 1.0 | 2.0 | 0.00 | 0.00 | 0.00 | 69 | 1024.7 |
| 20260831160344 | 86 | 259 | 1.0 | 2.0 | 0.00 | 0.00 | 0.00 | 72 | 1024.7 |
| 20260831155839 | 85 | 25 | 3.0 | 4.0 | 0.00 | 0.00 | 0.00 | 73 | 1024.8 |
| 20260831155338 | 87 | 230 | 0.0 | 2.0 | 0.00 | 0.00 | 0.00 | 70 | 1025.0 |
| 20260831154834 | 85 | 239 | 1.0 | 3.0 | 0.00 | 0.00 | 0.00 | 73 | 1024.9 |
| 20260831154331 | 84 | 264 | 0.0 | 1.0 | 0.00 | 0.00 | 0.00 | 74 | 1024.9 |
| 20260831153829 | 83 | 227 | 0.0 | 1.0 | 0.00 | 0.00 | 0.00 | 77 | 1025.0 |
| 20260831153325 | 85 | 275 | 1.0 | 2.0 | 0.00 | 0.00 | 0.00 | 75 | 1024.9 |
| 20260831152821 | 87 | 250 | 1.0 | 3.0 | 0.00 | 0.00 | 0.00 | 73 | 1024.7 |
| 20260831152317 | 86 | 352 | 0.0 | 0.0 | 0.00 | 0.00 | 0.00 | 73 | 1024.9 |
| 20260831151812 | 86 | 215 | 0.0 | 0.0 | 0.00 | 0.00 | 0.00 | 73 | 1024.9 |
| 20260831151311 | 86 | 242 | 0.0 | 2.0 | 0.00 | 0.00 | 0.00 | 75 | 1024.8 |
| 20260831150806 | 86 | 1 | 2.0 | 2.0 | 0.00 | 0.00 | 0.00 | 73 | 1024.8 |
| 20260831150301 | 85 | 237 | 0.0 | 2.0 | 0.00 | 0.00 | 0.00 | 77 | 1025.1 |
| 20260831145800 | 85 | 255 | 3.0 | 3.0 | 0.00 | 0.00 | 0.00 | 77 | 1024.8 |
| 20260831145257 | 83 | 227 | 0.0 | 1.0 | 0.00 | 0.00 | 0.00 | 80 | 1024.7 |
| 20260831144752 | 83 | 243 | 2.0 | 3.0 | 0.00 | 0.00 | 0.00 | 80 | 1024.9 |
| 20260831144249 | 84 | 247 | 2.0 | 3.0 | 0.00 | 0.00 | 0.00 | 77 | 1024.7 |
| 20260831143748 | 82 | 222 | 0.0 | 1.0 | 0.00 | 0.00 | 0.00 | 80 | 1024.7 |
| 20260831143243 | 82 | 260 | 1.0 | 4.0 | 0.00 | 0.00 | 0.00 | 81 | 1024.9 |
| 20260831142739 | 82 | 251 | 0.0 | 1.0 | 0.00 | 0.00 | 0.00 | 79 | 1024.8 |
| 20260831142234 | 82 | 244 | 2.0 | 3.0 | 0.00 | 0.00 | 0.00 | 82 | 1024.8 |
| 20260831141733 | 82 | 270 | 1.0 | 2.0 | 0.00 | 0.00 | 0.00 | 83 | 1024.9 |
| 20260831141228 | 82 | 260 | 1.0 | 3.0 | 0.00 | 0.00 | 0.00 | 82 | 1024.9 |
| 20260831140729 | 81 | 228 | 0.0 | 1.0 | 0.00 | 0.00 | 0.00 | 82 | 1024.9 |
| 20260831140223 | 81 | 224 | 0.0 | 2.0 | 0.00 | 0.00 | 0.00 | 82 | 1024.5 |
| 20260831135721 | 82 | 207 | 0.0 | 0.0 | 0.00 | 0.00 | 0.00 | 81 | 1024.6 |
| 20260831135217 | 82 | 237 | 0.0 | 0.0 | 0.00 | 0.00 | 0.00 | 82 | 1024.5 |
| 20260831134712 | 81 | 248 | 0.0 | 0.0 | 0.00 | 0.00 | 0.00 | 82 | 1024.5 |
| 20260831134209 | 81 | 242 | 0.0 | 0.0 | 0.00 | 0.00 | 0.00 | 83 | 1024.7 |
| 20260831133707 | 81 | 231 | 0.0 | 0.0 | 0.00 | 0.00 | 0.00 | 83 | 1024.7 |
| 20260831133202 | 82 | 230 | 0.0 | 0.0 | 0.00 | 0.00 | 0.00 | 82 | 1024.7 |
| 20260831132657 | 81 | 2 | 0.0 | 0.0 | 0.00 | 0.00 | 0.00 | 82 | 1024.7 |
| 20260831132156 | 81 | 3 | 0.0 | 1.0 | 0.00 | 0.00 | 0.00 | 82 | 1024.5 |
| 20260831131651 | 80 | 314 | 0.0 | 0.0 | 0.00 | 0.00 | 0.00 | 84 | 1024.7 |
| 20260831131148 | 79 | 313 | 0.0 | 0.0 | 0.00 | 0.00 | 0.00 | 85 | 1024.6 |
| 20260831130643 | 78 | 314 | 0.0 | 0.0 | 0.00 | 0.00 | 0.00 | 85 | 1024.7 |
| 20260831130138 | 78 | 314 | 0.0 | 1.0 | 0.00 | 0.00 | 0.00 | 87 | 1024.7 |
| 20260831125636 | 77 | 313 | 0.0 | 0.0 | 0.00 | 0.00 | 0.00 | 87 | 1024.7 |
| 20260831125133 | 77 | 314 | 0.0 | 1.0 | 0.00 | 0.00 | 0.00 | 88 | 1024.7 |
| 20260831124628 | 77 | 226 | 0.0 | 0.0 | 0.00 | 0.00 | 0.00 | 87 | 1024.8 |
| 20260831124124 | 78 | 226 | 0.0 | 0.0 | 0.00 | 0.00 | 0.00 | 86 | 1024.7 |
| 20260831123624 | 77 | 226 | 0.0 | 0.0 | 0.00 | 0.00 | 0.00 | 88 | 1024.7 |
| 20260831123123 | 76 | 226 | 0.0 | 0.0 | 0.00 | 0.00 | 0.00 | 89 | 1024.8 |
| 20260831122622 | 76 | 226 | 0.0 | 0.0 | 0.00 | 0.00 | 0.00 | 91 | 1024.8 |
| 20260831122119 | 74 | 226 | 0.0 | 0.0 | 0.00 | 0.00 | 0.00 | 95 | 1024.7 |
| 20260831121618 | 73 | 226 | 0.0 | 0.0 | 0.00 | 0.00 | 0.00 | 95 | 1024.6 |
| 20260831121114 | 73 | 226 | 0.0 | 0.0 | 0.00 | 0.00 | 0.00 | 97 | 1024.5 |
| 20260831120609 | 72 | 226 | 0.0 | 0.0 | 0.00 | 0.00 | 0.00 | 99 | 1024.4 |
| 20260831120104 | 71 | 226 | 0.0 | 0.0 | 0.00 | 0.00 | 0.00 | 99 | 1024.4 |
| 20260831115600 | 70 | 226 | 0.0 | 0.0 | 0.00 | 0.00 | 0.00 | 99 | 1024.4 |
| 20260831115055 | 70 | 226 | 0.0 | 0.0 | 0.00 | 0.00 | 0.00 | 99 | 1024.3 |
| 20260831114554 | 70 | 226 | 0.0 | 0.0 | 0.00 | 0.00 | 0.00 | 99 | 1024.2 |
| 20260831114049 | 69 | 227 | 0.0 | 0.0 | 0.00 | 0.00 | 0.00 | 99 | 1024.2 |
| 20260831113548 | 69 | 227 | 0.0 | 0.0 | 0.00 | 0.00 | 0.00 | 99 | 1024.3 |
| 20260831113044 | 69 | 227 | 0.0 | 0.0 | 0.00 | 0.00 | 0.00 | 99 | 1024.4 |
| 20260831112543 | 69 | 227 | 0.0 | 0.0 | 0.00 | 0.00 | 0.00 | 99 | 1024.2 |
| 20260831112038 | 69 | 227 | 0.0 | 0.0 | 0.00 | 0.00 | 0.00 | 99 | 1024.2 |
| 20260831111535 | 69 | 227 | 0.0 | 0.0 | 0.00 | 0.00 | 0.00 | 99 | 1024.1 |